Annecy-Haute-Savoie-Mont Blanc Airport

Jump to: basic info | weather | frequencies | runways | comments

Related pages: nearby airports | nearby navaids | notams | map

Basic information (top)

Codes: NCY LFLP
Location: lon 45.929199, lat 6.098760, elev 1,521 ft / 464 m msl
Status: medium_airport
Scheduled airline service: yes
Links: Wikipedia Mobile

Weather (top)

Current conditions (rec'd 2014/09/18 05:00Z):

LFLP 180500Z AUTO 00000KT 9999 -RA NSC 16/15 Q1012

Airport forecast (rec'd 2014/09/17 18:00Z):

TAF LFCR 171700Z 1718/1818 12012KT CAVOK= TAF LFLP 171700Z 1718/1818 VRB04KT CAVOK 
      TEMPO 1718/1724 FEW060TCU PROB40 
      TEMPO 1718/1721 SHRA SCT055TCU 
      TEMPO 1811/1818 SCT060TCU PROB40 
      TEMPO 1816/1818 SHRA PROB30 
      TEMPO 1816/1818 VRB10G20KT 5000 TSRA SCT050CB BKN060TCU

Frequencies (top)

Verify before use: may be inaccurate or out of date.

AFIS: 118.2 MHz (INFO)
APP: 123.7 MHz (CHAMBERY APP)
TWR: 118.2 MHz (ANNECY TWR)

Runways (top)

04/22: 5,348 x 98 ft (1,630 x 30 m) — paved — lighted — threshold 04 displaced 820 ft (250 m) — threshold 22 displaced 755 ft (230 m)

Latest comments (top)

No comments yet for Annecy-Haute-Savoie-Mont Blanc Airport

More... (top)

See also NOTAMs and nearby airports and navaids, or visit the Annecy-Haute-Savoie-Mont Blanc Airport page at the main OurAirports website..